| time (UTC) | temp F | wind direction | speed knots | gust knots | rain 1hr in | rain 24hr in | rain mn in | humidity % | barometer mb |
| 20260505124532 | 57 | 261 | 0.0 | 0.0 | 0.00 | 0.00 | 0.00 | 37 | 999.9 |
| 20260505123031 | 57 | 261 | 0.0 | 0.0 | 0.00 | 0.00 | 0.00 | 37 | 999.3 |
| 20260505121529 | 57 | 261 | 0.0 | 0.0 | 0.00 | 0.00 | 0.00 | 35 | 999.1 |
| 20260505120027 | 57 | 261 | 0.0 | 0.0 | 0.00 | 0.00 | 0.00 | 35 | 999.0 |
| 20260505114526 | 58 | 261 | 0.0 | 0.0 | 0.00 | 0.00 | 0.00 | 35 | 998.9 |
| 20260505113024 | 58 | 260 | 0.0 | 0.0 | 0.00 | 0.00 | 0.00 | 34 | 998.6 |
| 20260505111524 | 58 | 261 | 0.0 | 0.0 | 0.00 | 0.00 | 0.00 | 33 | 998.7 |
| 20260505101519 | 59 | 261 | 0.0 | 0.0 | 0.00 | 0.00 | 0.00 | 32 | 998.2 |
| 20260505100020 | 60 | 261 | 0.0 | 0.0 | 0.00 | 0.00 | 0.00 | 31 | 998.1 |
| 20260505094516 | 60 | 261 | 0.0 | 0.0 | 0.00 | 0.00 | 0.00 | 31 | 997.9 |
| 20260505093026 | 60 | 261 | 0.0 | 0.0 | 0.00 | 0.00 | 0.00 | 31 | 998.2 |
| 20260505091516 | 60 | 261 | 0.0 | 0.0 | 0.00 | 0.00 | 0.00 | 32 | 998.0 |
| 20260505090014 | 60 | 261 | 0.0 | 0.0 | 0.00 | 0.00 | 0.00 | 31 | 997.9 |
| 20260505084510 | 61 | 259 | 0.0 | 0.0 | 0.00 | 0.00 | 0.00 | 30 | 998.1 |
| 20260505083008 | 61 | 258 | 0.9 | 0.0 | 0.00 | 0.00 | 0.00 | 30 | 998.5 |
| 20260505081508 | 61 | 278 | 2.6 | 0.0 | 0.00 | 0.00 | 0.00 | 30 | 998.6 |
| 20260505080005 | 62 | 283 | 0.0 | 0.0 | 0.00 | 0.00 | 0.00 | 30 | 998.5 |
| 20260505074504 | 62 | 281 | 1.7 | 0.0 | 0.00 | 0.00 | 0.00 | 29 | 998.4 |
| 20260505073003 | 62 | 276 | 0.9 | 0.0 | 0.00 | 0.00 | 0.00 | 28 | 998.4 |
| 20260505071559 | 63 | 264 | 0.9 | 0.0 | 0.00 | 0.00 | 0.00 | 28 | 998.7 |
| 20260505070057 | 63 | 262 | 0.0 | 0.0 | 0.00 | 0.00 | 0.00 | 26 | 998.3 |
| 20260505064557 | 64 | 247 | 0.0 | 0.0 | 0.00 | 0.00 | 0.00 | 26 | 997.8 |
| 20260505063053 | 64 | 261 | 0.9 | 0.0 | 0.00 | 0.00 | 0.00 | 25 | 997.9 |
| 20260505061553 | 64 | 264 | 0.9 | 0.0 | 0.00 | 0.00 | 0.00 | 24 | 997.9 |
| 20260505060048 | 65 | 265 | 1.7 | 0.0 | 0.00 | 0.00 | 0.00 | 23 | 997.8 |
| 20260505054548 | 66 | 269 | 4.3 | 0.0 | 0.00 | 0.00 | 0.00 | 23 | 997.8 |
| 20260505053049 | 66 | 265 | 0.9 | 0.0 | 0.00 | 0.00 | 0.00 | 22 | 997.8 |
| 20260505051547 | 67 | 256 | 0.0 | 0.0 | 0.00 | 0.00 | 0.00 | 21 | 998.0 |
| 20260505041543 | 67 | 264 | 0.0 | 0.0 | 0.00 | 0.00 | 0.00 | 23 | 998.7 |
| 20260505040043 | 68 | 264 | 0.0 | 0.0 | 0.00 | 0.00 | 0.00 | 22 | 998.2 |
| 20260505034542 | 68 | 264 | 0.0 | 0.0 | 0.00 | 0.00 | 0.00 | 22 | 998.1 |
| 20260505033104 | 68 | 270 | 0.0 | 0.0 | 0.00 | 0.00 | 0.00 | 22 | 997.9 |
| 20260505031542 | 69 | 266 | 1.7 | 0.0 | 0.00 | 0.00 | 0.00 | 21 | 998.3 |
| 20260505030043 | 69 | 265 | 3.5 | 0.0 | 0.00 | 0.00 | 0.00 | 21 | 998.2 |
| 20260505024541 | 70 | 269 | 8.7 | 0.0 | 0.00 | 0.00 | 0.00 | 20 | 997.7 |
| 20260505023048 | 70 | 270 | 5.2 | 0.0 | 0.00 | 0.00 | 0.00 | 20 | 997.6 |
| 20260505021540 | 71 | 269 | 5.2 | 0.0 | 0.00 | 0.00 | 0.00 | 19 | 998.4 |
| 20260505020045 | 71 | 281 | 2.6 | 0.0 | 0.00 | 0.00 | 0.00 | 19 | 997.7 |
| 20260505014539 | 71 | 275 | 3.5 | 0.0 | 0.00 | 0.00 | 0.00 | 19 | 997.5 |
| 20260505013038 | 72 | 278 | 1.7 | 0.0 | 0.00 | 0.00 | 0.00 | 19 | 997.4 |
| 20260505011538 | 72 | 283 | 2.6 | 0.0 | 0.00 | 0.00 | 0.00 | 18 | 997.5 |
| 20260505010040 | 73 | 265 | 1.7 | 0.0 | 0.00 | 0.00 | 0.00 | 16 | 997.5 |
| 20260505004545 | 74 | 269 | 0.9 | 0.0 | 0.00 | 0.00 | 0.00 | 15 | 997.4 |
| 20260505003038 | 74 | 240 | 0.0 | 0.0 | 0.00 | 0.00 | 0.00 | 14 | 997.4 |
| 20260505001535 | 75 | 254 | 0.9 | 0.0 | 0.00 | 0.00 | 0.00 | 14 | 997.4 |
| 20260505000036 | 75 | 265 | 0.0 | 0.0 | 0.00 | 0.00 | 0.00 | 13 | 997.4 |
| 20260504234553 | 74 | 258 | 1.7 | 0.0 | 0.00 | 0.00 | 0.00 | 12 | 997.6 |
| 20260504233035 | 75 | 264 | 0.9 | 0.0 | 0.00 | 0.00 | 0.00 | 12 | 997.6 |
| 20260504231545 | 75 | 236 | 0.9 | 0.0 | 0.00 | 0.00 | 0.00 | 12 | 997.7 |
| 20260504230029 | 75 | 257 | 0.9 | 0.0 | 0.00 | 0.00 | 0.00 | 12 | 997.5 |
| 20260504224529 | 76 | 223 | 1.7 | 0.0 | 0.00 | 0.00 | 0.00 | 12 | 997.2 |
| 20260504223027 | 76 | 207 | 1.7 | 0.0 | 0.00 | 0.00 | 0.00 | 12 | 997.4 |
| 20260504221525 | 76 | 236 | 0.9 | 0.0 | 0.00 | 0.00 | 0.00 | 12 | 997.6 |
| 20260504220025 | 76 | 226 | 0.9 | 0.0 | 0.00 | 0.00 | 0.00 | 12 | 997.9 |
| 20260504214533 | 77 | 222 | 0.9 | 0.0 | 0.00 | 0.00 | 0.00 | 13 | 998.1 |
| 20260504213026 | 77 | 246 | 0.9 | 0.0 | 0.00 | 0.00 | 0.00 | 14 | 998.2 |
| 20260504211521 | 76 | 250 | 0.0 | 0.0 | 0.00 | 0.00 | 0.00 | 15 | 998.2 |
| 20260504210021 | 76 | 236 | 0.0 | 0.0 | 0.00 | 0.00 | 0.00 | 15 | 999.0 |
| 20260504204547 | 76 | 268 | 1.7 | 0.0 | 0.00 | 0.00 | 0.00 | 16 | 999.9 |
| 20260504203021 | 76 | 226 | 0.9 | 0.0 | 0.00 | 0.00 | 0.00 | 16 | 999.3 |
| 20260504201518 | 76 | 246 | 0.9 | 0.0 | 0.00 | 0.00 | 0.00 | 16 | 999.5 |
| 20260504200016 | 75 | 233 | 0.0 | 0.0 | 0.00 | 0.00 | 0.00 | 17 | 1000.1 |
| 20260504194512 | 74 | 200 | 0.0 | 0.0 | 0.00 | 0.00 | 0.00 | 17 | 1000.5 |
| 20260504193012 | 74 | 232 | 0.0 | 0.0 | 0.00 | 0.00 | 0.00 | 17 | 1001.0 |
| 20260504191502 | 73 | 257 | 0.0 | 0.0 | 0.00 | 0.00 | 0.00 | 18 | 1000.6 |
| 20260504184605 | 72 | 254 | 0.0 | 0.0 | 0.00 | 0.00 | 0.00 | 18 | 1001.6 |
| 20260504183100 | 71 | 245 | 0.9 | 0.0 | 0.00 | 0.00 | 0.00 | 19 | 1001.8 |
| 20260504181554 | 71 | 221 | 0.0 | 0.0 | 0.00 | 0.00 | 0.00 | 19 | 1002.1 |
| 20260504180054 | 71 | 241 | 0.0 | 0.0 | 0.00 | 0.00 | 0.00 | 19 | 1002.0 |
| 20260504174552 | 70 | 235 | 0.0 | 0.0 | 0.00 | 0.00 | 0.00 | 20 | 1002.7 |
| 20260504173049 | 70 | 210 | 0.0 | 0.0 | 0.00 | 0.00 | 0.00 | 20 | 1002.8 |
| 20260504171548 | 69 | 240 | 0.0 | 0.0 | 0.00 | 0.00 | 0.00 | 20 | 1002.6 |